"2009-03-08 00:00:00",691541,4.593,359.1,8.76,1.003,2.356,100.6042,0.841,2.092,67.45,0,109.7,13.55,1.60,321.1
"2009-03-08 00:00:30",691542,4.965,15.93,8.5,1.169,4.449,100.5886,0.801,2.153,67.5,0,109.7,13.55,1.56,337.9
"2009-03-08 00:01:00",691543,5.452,19.56,6.194,0.968,5.851,100.5785,0.775,2.2,67.53,0,109.7,13.56,1.53,341.6
"2009-03-08 00:01:30",691544,4.972,20.41,9.1,1.301,4.435,100.5765,0.77,2.139,67.47,0,109.7,13.56,1.53,342.4
"2009-03-08 00:02:00",691545,4.49,18.02,11.51,1.219,2.776,100.5756,0.768,2.013,67.31,0,109.7,13.56,1.52,340.0
"2009-03-08 00:02:30",691546,2.481,15.63,7.367,1.03,1.252,100.5635,0.737,1.95,67.18,0,109.7,13.56,1.49,337.6
"2009-03-08 00:03:00",691547,3.329,19.79,9.56,1.216,2.626,100.5519,0.708,1.988,67.22,0,109.6,13.56,1.46,341.8
"2009-03-08 00:03:30",691548,4.381,11.85,8.02,1.27,4.669,100.5434,0.686,2.009,67.26,0,109.6,13.56,1.44,333.9
"2009-03-08 00:04:00",691549,5.573,16.92,6.108,0.971,5.339,100.5431,0.685,2.092,67.45,0,109.6,13.56,1.44,338.9
"2009-03-08 00:04:30",691550,4.983,22.45,5.311,1.042,4.504,100.5431,0.685,2.048,67.45,0,109.6,13.56,1.44,344.5
"2009-03-08 00:05:00",691551,5.475,17.79,8.07,1.136,4.29,100.5431,0.685,2.017,67.37,0,109.6,13.56,1.44,339.8
"2009-03-08 00:05:30",691552,3.59,9.56,3.399,0.214,0.504,100.5414,0.681,1.808,67.22,0,109.6,13.59,1.44,331.6
"2009-03-08 00:06:00",691553,4.125,16.76,5.661,1.502,3.009,100.5324,0.658,1.901,67.46,0,109.6,13.56,1.41,338.8
"2009-03-08 00:06:30",691554,5.166,23.11,6.873,1.104,4.179,100.5233,0.635,2.009,67.7,0,109.6,13.57,1.39,345.1
"2009-03-08 00:07:00",691555,5.084,26.94,4.693,1.056,5.14,100.5193,0.625,2.045,67.73,0,109.6,13.56,1.38,348.9
"2009-03-08 00:07:30",691556,5.042,22.33,6.106,1.251,4.832,100.5106,0.602,1.972,67.66,0,109.6,13.56,1.36,344.3
"2009-03-08 00:08:00",691557,4.188,21.17,8.07,1.323,3.682,100.5092,0.599,1.974,67.64,0,109.6,13.56,1.35,343.2
"2009-03-08 00:08:30",691558,4.417,13.76,7.221,1.298,2.667,100.5092,0.599,1.773,67.5,0,109.6,13.56,1.35,335.8
"2009-03-08 00:09:00",691559,2.6,11.89,5.329,0.927,1.001,100.5092,0.599,1.781,67.6,0,109.6,13.56,1.35,333.9
"2009-03-08 00:09:30",691560,3.868,21.6,7.957,1.554,4.437,100.5092,0.599,1.945,67.77,0,109.6,13.56,1.35,343.6
"2009-03-08 00:10:00",691561,4.272,22.3,10.56,0.909,5.6,100.5086,0.597,1.985,67.87,0,109.6,13.56,1.35,344.3
"2009-03-08 00:10:30",691562,5.258,24.86,7.583,1.186,4.441,100.5061,0.591,1.924,67.85,0,109.6,13.56,1.35,346.9
"2009-03-08 00:11:00",691563,4.907,19.14,5.234,1.163,3.506,100.4945,0.561,1.915,67.95,0,109.6,13.56,1.32,341.1
"2009-03-08 00:11:30",691564,4.776,21.22,10.17,1.439,2.523,100.4874,0.543,1.822,67.91,0,109.6,13.56,1.30,343.2
"2009-03-08 00:12:00",691565,4.411,24.07,8.19,1.265,2.086,100.4763,0.515,1.708,67.76,0,109.6,13.56,1.27,346.1
"2009-03-08 00:12:30",691566,5.017,26.92,4.961,1.039,5.436,100.4755,0.513,1.899,67.9,0,109.6,13.57,1.27,348.9
"2009-03-08 00:13:00",691567,4.499,24.88,5.453,1.012,4.883,100.4755,0.513,1.928,67.83,0,109.6,13.57,1.27,346.9
"2009-03-08 00:13:30",691568,4.468,25.84,5.775,1.002,4.749,100.4758,0.514,1.924,67.63,0,109.6,13.57,1.27,347.8
"2009-03-08 00:14:00",691569,3.565,18.82,11.18,1.518,2.994,100.4755,0.513,1.793,67.3,0,109.6,13.57,1.27,340.8
"2009-03-08 00:14:30",691570,3.431,19.78,4.386,0.806,1.922,100.4783,0.52,1.647,67.03,0,109.6,13.57,1.27,341.8
"2009-03-08 00:15:00",691571,3.564,24.31,7.896,1.203,2.913,100.4792,0.522,1.789,67.04,0,109.6,13.57,1.28,346.3
"2009-03-08 00:15:30",691572,3.652,25.59,8.64,1.418,2.822,100.4818,0.529,1.778,66.8,0,109.6,13.57,1.28,347.6
"2009-03-08 00:16:00",691573,4.869,31.15,7.332,0.846,5.436,100.4832,0.532,1.93,66.61,0,109.6,13.57,1.29,353.1
"2009-03-08 00:16:30",691574,3.956,23.6,6.011,0.824,5.604,100.4829,0.532,1.957,66.4,0,109.6,13.57,1.29,345.6
"2009-03-08 00:17:00",691575,2.357,355.4,13.2,0.807,1.463,100.4857,0.539,1.733,65.96,0,109.6,13.57,1.29,317.4
"2009-03-08 00:17:30",691576,2.078,11.93,8.83,0.43,0.776,100.488,0.545,1.752,65.68,0,109.6,13.61,1.30,333.9
"2009-03-08 00:18:00",691577,3.485,14.31,8.18,1.398,2.974,100.4877,0.544,1.67,65.34,0,109.6,13.57,1.30,336.3
"2009-03-08 00:18:30",691578,4.059,27.93,10.44,1.594,3.702,100.4872,0.543,1.854,65.32,0,109.6,13.57,1.30,349.9
"2009-03-08 00:19:00",691579,5.749,37.9,5.18,0.981,5.248,100.4874,0.543,1.928,65.29,0,109.6,13.58,1.30,359.9
"2009-03-08 00:19:30",691580,6.226,40.37,3.335,0.694,5.565,100.4906,0.551,1.924,65.33,0,109.6,13.58,1.31,2.4
"2009-03-08 00:20:00",691581,4.881,28.37,7.977,1.079,3.589,100.4894,0.548,1.869,65.19,0,109.6,13.57,1.30,350.4
"2009-03-08 00:20:30",691582,3.737,25.13,5.1,0.43,1.481,100.488,0.545,1.802,65.11,0,109.6,13.61,1.30,347.1
"2009-03-08 00:21:00",691583,4.691,31.57,6.331,1.225,2.822,100.4903,0.551,1.661,64.92,0,109.6,13.57,1.30,353.6
"2009-03-08 00:21:30",691584,4.449,31.45,6.923,1.15,3.3,100.4926,0.556,1.862,64.96,0,109.6,13.57,1.31,353.5
"2009-03-08 00:22:00",691585,5.844,37.73,3.129,0.649,5.592,100.4937,0.559,1.904,64.85,0,109.6,13.57,1.31,359.7
"2009-03-08 00:22:30",691586,6.073,37.63,3.804,0.727,5.617,100.4931,0.558,1.939,64.67,0,109.6,13.57,1.31,359.6
"2009-03-08 00:23:00",691587,5.775,35.53,6.135,1.058,4.873,100.496,0.565,1.843,64.23,0,109.6,13.57,1.32,357.5
"2009-03-08 00:23:30",691588,4.887,30.75,4.607,0.81,2.018,100.4971,0.568,1.792,64.04,0,109.6,13.57,1.32,352.8
"2009-03-08 00:24:00",691589,5.658,34.55,6.765,1.376,3.564,100.4991,0.573,1.708,63.68,0,109.6,13.56,1.33,356.5
"2009-03-08 00:24:30",691590,5.387,34.48,6.262,1.117,4.793,100.4985,0.572,1.876,63.68,0,109.6,13.57,1.33,356.5
"2009-03-08 00:25:00",691591,6.319,40.17,4.038,0.701,5.913,100.5011,0.578,1.936,63.68,0,109.6,13.57,1.33,2.2
"2009-03-08 00:25:30",691592,6.436,37.38,4.175,0.569,6.071,100.5,0.575,1.914,63.64,0,109.6,13.57,1.33,359.4
"2009-03-08 00:26:00",691593,5.151,32.08,6.097,1.164,4.171,100.5022,0.581,1.804,63.49,0,109.6,13.57,1.34,354.1
"2009-03-08 00:26:30",691594,4.641,33.62,6.635,1.134,3.458,100.5025,0.582,1.791,63.37,0,109.6,13.57,1.34,355.6
"2009-03-08 00:27:00",691595,4.29,28.39,5.846,1.17,3.226,100.5034,0.584,1.743,63.24,0,109.6,13.57,1.34,350.4
"2009-03-08 00:27:30",691596,4.731,23.82,6.183,1.362,4.992,100.5025,0.582,1.842,63.35,0,109.6,13.57,1.34,345.8
"2009-03-08 00:28:00",691597,5.177,38.25,4.708,0.721,5.586,100.5056,0.59,1.921,63.34,0,109.6,13.57,1.34,0.2
"2009-03-08 00:28:30",691598,4.855,38.51,6.371,1.098,4.46,100.5076,0.595,1.883,63.33,0,109.6,13.57,1.35,0.5
"2009-03-08 00:29:00",691599,3.511,33.95,8.79,1.048,2.277,100.5093,0.599,1.726,63.42,0,109.6,13.57,1.35,356.0
"2009-03-08 00:29:30",691600,4.166,9.84,20.45,1.287,3.171,100.5101,0.601,1.752,63.7,0,109.6,13.57,1.36,331.8
"2009-03-08 00:30:00",691601,4.66,353.3,8.52,1.12,3.783,100.5087,0.598,1.834,63.33,0,109.6,13.57,1.35,315.3
"2009-03-08 00:30:30",691602,4.94,356,6.508,1.16,5.294,100.5082,0.596,1.955,63.23,0,109.6,13.58,1.35,318.0
"2009-03-08 00:31:00",691603,4.55,1.597,6.556,1.057,4.435,100.5079,0.595,1.843,63.34,0,109.6,13.58,1.35,323.6
"2009-03-08 00:31:30",691604,4.643,351.6,8.9,1.349,3.946,100.5076,0.595,1.897,63.54,0,109.6,13.58,1.35,313.6
"2009-03-08 00:32:00",691605,3.256,342.1,8.65,1.451,1.296,100.5051,0.588,1.643,63.35,0,109.6,13.58,1.34,304.1
"2009-03-08 00:32:30",691606,2.558,340.6,10.05,0.659,0.597,100.5071,0.593,1.658,63.3,0,109.6,13.57,1.35,302.6
"2009-03-08 00:33:00",691607,4.238,14.07,14.81,1.198,3.262,100.5059,0.59,1.913,63.36,0,109.6,13.58,1.34,336.1
"2009-03-08 00:33:30",691608,5.153,42.1,18.65,1.136,5.182,100.5073,0.594,1.966,63.7,0,109.5,13.58,1.35,4.1
"2009-03-08 00:34:00",691609,5.503,33.02,7.383,1.295,4.006,100.5076,0.595,1.898,64.61,0,109.6,13.58,1.35,355.0
"2009-03-08 00:34:30",691610,5.729,20.01,8.75,0.974,3.954,100.5082,0.596,1.893,65.69,0,109.6,13.58,1.35,342.0
"2009-03-08 00:35:00",691611,4.432,20.18,13.37,1.634,3.2,100.5085,0.597,1.872,66.04,0,109.6,13.58,1.35,342.2
"2009-03-08 00:35:30",691612,5.031,14.48,9.59,1.118,3.751,100.5074,0.594,1.794,65.75,0,109.6,13.58,1.35,336.5
"2009-03-08 00:36:00",691613,4.834,6.556,11.22,1.172,4.621,100.4915,0.554,1.819,65.7,0,109.6,13.58,1.31,328.6
"2009-03-08 00:36:30",691614,3.836,356.8,8.18,1.105,4.029,100.4765,0.515,1.871,65.64,0,109.6,13.58,1.27,318.8
"2009-03-08 00:37:00",691615,2.927,13.87,12.38,1.418,2.657,100.4754,0.513,1.696,65.41,0,109.6,13.58,1.27,335.9
"2009-03-08 00:37:30",691616,3.108,21.39,10.97,1.075,1.972,100.4754,0.513,1.823,65.54,0,109.6,13.58,1.27,343.4
"2009-03-08 00:38:00",691617,5.196,26.56,10.74,1.274,2.764,100.4754,0.513,1.623,65.46,0,109.6,13.58,1.27,348.6
"2009-03-08 00:38:30",691618,4.269,25.17,9.35,1.114,3.523,100.4725,0.505,1.827,65.84,0,109.6,13.58,1.26,347.2
"2009-03-08 00:39:00",691619,5.397,33.44,7.4,1.261,4.241,100.4598,0.473,1.808,66.02,0,109.6,13.58,1.23,355.4
"2009-03-08 00:39:30",691620,5.87,33.36,7.327,0.964,4.731,100.444,0.432,1.815,66.35,0,109.6,13.58,1.19,355.4
"2009-03-08 00:40:00",691621,4.678,32.42,6.319,1.283,3.152,100.4414,0.426,1.822,66.6,0,109.6,13.57,1.18,354.4
"2009-03-08 00:40:30",691622,3.905,33.51,5.6,1.035,2.403,100.4414,0.426,1.765,66.68,0,109.6,13.58,1.18,355.5
"2009-03-08 00:41:00",691623,3.719,37.66,6.862,1.27,2.742,100.4414,0.426,1.614,66.52,0,109.6,13.57,1.18,359.7
"2009-03-08 00:41:30",691624,3.346,27.38,9.73,1.262,2.748,100.4386,0.419,1.666,66.55,0,109.6,13.57,1.17,349.4
"2009-03-08 00:42:00",691625,5.208,36.12,7.338,1.255,3.899,100.4242,0.382,1.701,66.68,0,109.6,13.58,1.14,358.1
"2009-03-08 00:42:30",691626,6.316,45.62,4.82,0.488,5.439,100.408,0.341,1.79,67,0,109.6,13.58,1.09,7.6
"2009-03-08 00:43:00",691627,6.029,40.1,5.932,1.001,4.627,100.4075,0.339,1.707,66.9,0,109.6,13.58,1.09,2.1
"2009-03-08 00:43:30",691628,5.12,35.76,5.569,1.205,3.069,100.4075,0.339,1.657,66.98,0,109.6,13.58,1.09,357.8
"2009-03-08 00:44:00",691629,5.124,35.56,8.75,1.264,3.183,100.4061,0.336,1.637,67.04,0,109.6,13.58,1.09,357.6
"2009-03-08 00:44:30",691630,5.249,38.82,7.241,1.238,3.33,100.3811,0.272,1.527,67,0,109.6,13.58,1.03,0.8
"2009-03-08 00:45:00",691631,5.313,38.25,5.32,1.102,4.456,100.3735,0.253,1.681,67.34,0,109.6,13.58,1.01,0.2
"2009-03-08 00:45:30",691632,5.46,35.76,4.852,0.817,5.384,100.3735,0.253,1.681,67.58,0,109.6,13.58,1.01,357.8
"2009-03-08 00:46:00",691633,5.313,32.73,7.296,1.015,3.32,100.3735,0.253,1.602,67.64,0,109.6,13.58,1.01,354.7
"2009-03-08 00:46:30",691634,5.636,34.6,4.622,0.866,2.48,100.3662,0.234,1.447,67.49,0,109.6,13.58,0.99,356.6
"2009-03-08 00:47:00",691635,5.52,31.79,6.192,1.311,3.369,100.3489,0.19,1.607,67.54,0,109.6,13.58,0.94,353.8
"2009-03-08 00:47:30",691636,5.929,35.12,5.859,1.084,4.601,100.3396,0.166,1.552,67.59,0,109.6,13.58,0.92,357.1
"2009-03-08 00:48:00",691637,5.979,32.67,5.954,0.983,5.083,100.3396,0.166,1.597,67.7,0,109.6,13.59,0.92,354.7
"2009-03-08 00:48:30",691638,5.499,35.68,6.13,1.37,4.677,100.3381,0.163,1.564,67.69,0,109.6,13.59,0.92,357.7
"2009-03-08 00:49:00",691639,6.03,37.99,6.297,1.131,4.297,100.3265,0.133,1.481,67.63,0,109.6,13.59,0.89,360.0
"2009-03-08 00:49:30",691640,5.172,34.76,6.911,1.442,3.215,100.311,0.093,1.381,67.54,0,109.6,13.59,0.85,356.8
"2009-03-08 00:50:00",691641,5.367,36.93,6.668,1.194,4.013,100.3073,0.084,1.469,67.68,0,109.6,13.59,0.84,358.9
"2009-03-08 00:50:30",691642,4.266,31.15,6.366,1.154,2.879,100.307,0.083,1.44,67.68,0,109.6,13.59,0.84,353.1
"2009-03-08 00:51:00",691643,5.134,28.82,6.563,1.035,4.672,100.3084,0.087,1.447,67.74,0,109.6,13.59,0.84,350.8
"2009-03-08 00:51:30",691644,5.785,30.15,5.42,1.125,4.643,100.3099,0.09,1.458,67.82,0,109.5,13.59,0.84,352.1
"2009-03-08 00:52:00",691645,5.703,29.93,5.825,1.051,4.234,100.3084,0.087,1.411,67.86,0,109.6,13.59,0.84,351.9
"2009-03-08 00:52:30",691646,5.279,30.25,5.727,1.044,4.435,100.3042,0.076,1.388,67.89,0,109.6,13.59,0.83,352.2
"2009-03-08 00:53:00",691647,5.452,36.79,5.931,1.198,4.196,100.3022,0.071,1.418,67.95,0,109.6,13.59,0.82,358.8
"2009-03-08 00:53:30",691648,4.301,29.09,9.3,1.239,2.581,100.2957,0.054,1.212,67.74,0,109.6,13.59,0.81,351.1
"2009-03-08 00:54:00",691649,5.652,31.73,6.588,1.085,4.496,100.2915,0.044,1.412,67.95,0,109.6,13.59,0.80,353.7
"2009-03-08 00:54:30",691650,4.261,17.54,7.704,1.346,4.272,100.2884,0.036,1.31,67.98,0,109.6,13.59,0.79,339.5
"2009-03-08 00:55:00",691651,2.732,17.25,7.134,0.901,2.236,100.289,0.037,1.35,68.21,0,109.6,13.6,0.79,339.2
"2009-03-08 00:55:30",691652,5.134,27.72,7.492,1.184,4.156,100.2932,0.048,1.354,68.38,0,109.6,13.59,0.80,349.7
"2009-03-08 00:56:00",691653,4.957,28.53,6.811,1.214,3.892,100.2949,0.052,1.367,68.43,0,109.6,13.59,0.80,350.5
"2009-03-08 00:56:30",691654,4.074,20.64,10.92,1.89,3.132,100.2978,0.06,1.268,68.41,0,109.6,13.59,0.81,342.6
"2009-03-08 00:57:00",691655,4.962,30.25,7.955,1.061,4.39,100.2978,0.06,1.332,68.54,0,109.6,13.59,0.81,352.2
"2009-03-08 00:57:30",691656,4.62,32.47,6.259,1.32,3.496,100.2986,0.062,1.315,68.59,0,109.6,13.59,0.81,354.5
"2009-03-08 00:58:00",691657,3.693,27.77,7.127,1.361,3.268,100.2983,0.061,1.28,68.5,0,109.6,13.59,0.81,349.8
"2009-03-08 00:58:30",691658,4.813,30.38,7.493,1.13,4.127,100.3003,0.066,1.284,68.5,0,109.6,13.59,0.82,352.4
"2009-03-08 00:59:00",691659,4.333,28.18,5.597,1.31,3.359,100.3,0.065,1.311,68.53,0,109.6,13.59,0.82,350.2
"2009-03-08 00:59:30",691660,4.893,31.41,6.262,1.207,3.664,100.2969,0.057,1.278,68.48,0,109.6,13.59,0.81,353.4
"2009-03-08 01:00:00",691661,5.436,33.69,7.175,1.038,4.413,100.2898,0.039,1.282,68.48,0,109.6,13.59,0.79,355.7
"2009-03-08 01:00:30",691662,4.769,33.04,6.347,1.285,3.325,100.2813,0.018,1.255,68.42,0,109.6,13.6,0.77,355.0
"2009-03-08 01:01:00",691663,4.262,36.02,7.428,1.172,2.609,100.2712,-0.008,1.173,68.29,0,109.6,13.6,0.74,358.0
"2009-03-08 01:01:30",691664,5.329,35.22,8.19,1.205,4.328,100.2697,-0.012,1.303,68.37,0,109.6,13.6,0.74,357.2
"2009-03-08 01:02:00",691665,4.454,30.41,7.928,1.2,3.721,100.2712,-0.008,1.236,68.24,0,109.6,13.6,0.74,352.4
"2009-03-08 01:02:30",691666,3.778,22.54,7.492,1.316,3.034,100.2709,-0.009,1.17,68.18,0,109.6,13.6,0.74,344.5
"2009-03-08 01:03:00",691667,4.258,27.45,6.123,1.167,4.501,100.2712,-0.008,1.246,68.2,0,109.5,13.6,0.74,349.5
"2009-03-08 01:03:30",691668,2.649,18.3,7.731,0.68,1.539,100.2715,-0.007,1.22,68.13,0,109.6,13.6,0.74,340.3
"2009-03-08 01:04:00",691669,3.984,25.88,7.379,1.199,2.717,100.2717,-0.007,1.122,67.96,0,109.5,13.6,0.75,347.9
"2009-03-08 01:04:30",691670,4.397,29.77,5.658,1.254,3.68,100.2717,-0.007,1.278,68.08,0,109.6,13.6,0.75,351.8
"2009-03-08 01:05:00",691671,4.882,32.51,7.163,1.354,3.817,100.2717,-0.007,1.217,68.03,0,109.5,13.6,0.75,354.5
"2009-03-08 01:05:30",691672,4.951,31.57,5.884,0.935,4.477,100.2717,-0.007,1.279,68.04,0,109.5,13.6,0.75,353.6
"2009-03-08 01:06:00",691673,4.93,27.2,5.697,1.071,4.443,100.2669,-0.019,1.217,67.98,0,109.5,13.6,0.73,349.2
"2009-03-08 01:06:30",691674,4.121,26.72,7.078,1.343,3.445,100.263,-0.029,1.272,68.04,0,109.6,13.6,0.72,348.7
"2009-03-08 01:07:00",691675,3.609,27.78,4.958,1.09,2.115,100.2601,-0.036,1.073,67.89,0,109.6,13.6,0.72,349.8
"2009-03-08 01:07:30",691676,4.574,32.63,6.883,1.085,4.288,100.2536,-0.053,1.251,68.04,0,109.6,13.6,0.70,354.6
"2009-03-08 01:08:00",691677,4.332,31.29,7.499,1.119,3.989,100.2465,-0.071,1.28,68.02,0,109.6,13.6,0.68,353.3
"2009-03-08 01:08:30",691678,4.391,29.12,6.026,1.204,4.185,100.2412,-0.085,1.232,67.98,0,109.6,13.6,0.67,351.1
"2009-03-08 01:09:00",691679,3.964,28.35,7.002,1.188,4.27,100.2386,-0.091,1.25,67.97,0,109.6,13.6,0.66,350.4
"2009-03-08 01:09:30",691680,3.994,35.51,5.357,1.114,4.332,100.2378,-0.093,1.118,67.77,0,109.5,13.6,0.66,357.5
"2009-03-08 01:10:00",691681,2.539,28.92,4.976,1.041,1.838,100.2378,-0.093,1.127,67.71,0,109.6,13.61,0.66,350.9
"2009-03-08 01:10:30",691682,3.939,32.64,7.223,1.185,3.182,100.2378,-0.093,1.081,67.63,0,109.5,13.61,0.66,354.6
"2009-03-08 01:11:00",691683,3.778,33.02,6.899,1.203,3.229,100.2378,-0.093,1.13,67.78,0,109.5,13.61,0.66,355.0
"2009-03-08 01:11:30",691684,4.381,35.67,6.083,1.095,4.723,100.2378,-0.093,1.284,67.96,0,109.5,13.61,0.66,357.7
"2009-03-08 01:12:00",691685,4.488,34.12,6.487,1.173,4.094,100.2378,-0.093,1.197,67.93,0,109.5,13.6,0.66,356.1
"2009-03-08 01:12:30",691686,4.949,39.78,5.054,0.961,4.549,100.2378,-0.093,1.183,67.97,0,109.5,13.6,0.66,1.8
"2009-03-08 01:13:00",691687,3.253,32.14,4.36,0.969,1.5,100.2378,-0.093,1.088,67.91,0,109.5,13.6,0.66,354.1
"2009-03-08 01:13:30",691688,3.548,34.3,5.856,1.282,1.977,100.2378,-0.093,1.078,67.93,0,109.5,13.6,0.66,356.3
"2009-03-08 01:14:00",691689,4.172,38.17,5.574,1.159,4.189,100.2352,-0.1,1.213,68.07,0,109.6,13.6,0.65,0.2
"2009-03-08 01:14:30",691690,4.686,41.03,5.501,0.966,5.173,100.2313,-0.11,1.219,68.13,0,109.5,13.6,0.64,3.0
"2009-03-08 01:15:00",691691,4.545,39.26,5.22,1.002,4.203,100.2245,-0.127,1.152,68.11,0,109.5,13.6,0.62,1.3
"2009-03-08 01:15:30",691692,5.142,40.64,6.517,1.264,4.379,100.2208,-0.137,1.178,68.22,0,109.5,13.6,0.61,2.6
"2009-03-08 01:16:00",691693,4.3,29.39,6.201,1.125,2.184,100.2182,-0.143,1.026,68.16,0,109.5,13.6,0.61,351.4
"2009-03-08 01:16:30",691694,4.374,35.54,5.859,1.221,3.62,100.214,-0.154,1.092,68.44,0,109.5,13.6,0.60,357.5
"2009-03-08 01:17:00",691695,4.789,40.2,5.257,1.047,4.24,100.212,-0.159,1.088,68.74,0,109.6,13.61,0.59,2.2
"2009-03-08 01:17:30",691696,3.961,31.84,6.239,1.261,3.584,100.2097,-0.165,1.149,68.97,0,109.5,13.61,0.59,353.8
"2009-03-08 01:18:00",691697,4.244,37.1,6.227,1.236,4.411,100.2078,-0.17,1.122,69.03,0,109.5,13.61,0.58,359.1
"2009-03-08 01:18:30",691698,4.535,38.2,5.86,1.174,4.061,100.2072,-0.171,1.114,69.13,0,109.5,13.61,0.58,0.2
"2009-03-08 01:19:00",691699,2.763,30.68,1.384,0.191,1.065,100.2058,-0.175,0.952,69.08,0,109.5,13.64,0.58,352.7
"2009-03-08 01:19:30",691700,4.029,38.16,6.14,1.168,3.451,100.2046,-0.178,1.069,69.29,0,109.5,13.61,0.57,0.2
"2009-03-08 01:20:00",691701,4.506,41.83,7.228,1.271,3.548,100.2041,-0.179,1.134,69.43,0,109.5,13.61,0.57,3.8
"2009-03-08 01:20:30",691702,5.258,46.51,5.555,0.9,5.141,100.2041,-0.179,1.163,69.41,0,109.5,13.61,0.57,8.5
"2009-03-08 01:21:00",691703,4.806,45.76,6.167,1.158,4.396,100.2038,-0.18,1.15,69.42,0,109.5,13.61,0.57,7.8
"2009-03-08 01:21:30",691704,4.337,46.36,6.512,1.219,3.842,100.2038,-0.18,1.082,69.65,0,109.5,13.61,0.57,8.4
"2009-03-08 01:22:00",691705,3.644,42.39,5.551,1.081,2.202,100.2038,-0.18,0.962,69.71,0,109.5,13.61,0.57,4.4
"2009-03-08 01:22:30",691706,4.327,46.48,6.108,1.2,3.971,100.2038,-0.18,1.147,69.97,0,109.5,13.61,0.57,8.5
"2009-03-08 01:23:00",691707,4.602,48.37,5.387,1.055,4.377,100.2038,-0.18,1.099,70.01,0,109.5,13.61,0.57,10.4
"2009-03-08 01:23:30",691708,4.499,49.39,5.161,1.12,4.983,100.2038,-0.18,1.139,70.06,0,109.6,13.61,0.57,11.4
"2009-03-08 01:24:00",691709,4.126,48.44,6.064,1.171,4.256,100.2038,-0.18,1.146,70.13,0,109.5,13.61,0.57,10.4
"2009-03-08 01:24:30",691710,3.341,46.22,7.586,1.294,3.038,100.2038,-0.18,0.979,70.03,0,109.5,13.61,0.57,8.2
"2009-03-08 01:25:00",691711,2.2,39.2,6.288,0.832,1.728,100.2038,-0.18,0.94,70.09,0,109.5,13.61,0.57,1.2
"2009-03-08 01:25:30",691712,4.065,51.99,5.193,1.119,4.196,100.2038,-0.18,1.092,70.28,0,109.5,13.61,0.57,14.0
"2009-03-08 01:26:00",691713,3.583,49.55,7.241,1.201,3.402,100.2038,-0.18,1.076,70.33,0,109.5,13.62,0.57,11.5
"2009-03-08 01:26:30",691714,3.622,42.19,5.564,1.29,2.751,100.2044,-0.179,1.091,70.47,0,109.5,13.62,0.57,4.2
"2009-03-08 01:27:00",691715,4.031,40.32,7.468,1.162,4.305,100.2044,-0.179,1.066,70.6,0,109.5,13.62,0.57,2.3
"2009-03-08 01:27:30",691716,3.438,39.52,5.629,1.122,3.305,100.2044,-0.179,1.043,70.74,0,109.5,13.62,0.57,1.5
"2009-03-08 01:28:00",691717,3.466,43.62,6.505,1.151,2.056,100.2044,-0.179,0.913,70.7,0,109.5,13.61,0.57,5.6
"2009-03-08 01:28:30",691718,3.92,46.82,5.515,1.176,3.527,100.1981,-0.194,1.067,70.95,0,109.5,13.61,0.56,8.8
"2009-03-08 01:29:00",691719,3.245,49.05,5.957,1.246,3.852,100.1846,-0.229,1.027,70.98,0,109.5,13.61,0.52,11.0
"2009-03-08 01:29:30",691720,2.287,47.29,4.594,1.062,2.471,100.1755,-0.252,0.981,70.83,0,109.5,13.61,0.50,9.3
"2009-03-08 01:30:00",691721,3.283,56.73,6.041,1.069,4.542,100.1764,-0.25,1.065,70.73,0,109.5,13.61,0.50,18.7
"2009-03-08 01:30:30",691722,2.223,50.71,5.451,1.05,2.328,100.1749,-0.254,0.984,70.49,0,109.5,13.61,0.50,12.7
"2009-03-08 01:31:00",691723,1.579,47.55,1.583,0.089,0.421,100.1781,-0.246,0.872,70.31,0,109.5,13.65,0.51,9.5
"2009-03-08 01:31:30",691724,2.367,48.23,5.781,1.182,2.553,100.1812,-0.238,0.919,70.45,0,109.5,13.62,0.51,10.2
"2009-03-08 01:32:00",691725,3.221,53.74,7.294,1.168,3.919,100.1826,-0.234,1.065,70.72,0,109.5,13.61,0.52,15.7
"2009-03-08 01:32:30",691726,1.544,36.93,7.025,0.743,1.524,100.1817,-0.236,0.93,70.7,0,109.5,13.62,0.51,358.9
"2009-03-08 01:33:00",691727,2.563,35.65,6.866,1.095,4.425,100.1849,-0.228,1.062,70.94,0,109.5,13.62,0.52,357.6
"2009-03-08 01:33:30",691728,2.209,27.57,10.03,1.185,3.823,100.1857,-0.226,0.995,70.91,0,109.5,13.62,0.53,349.6
"2009-03-08 01:34:00",691729,0.406,9.65,6.869,0.129,0.535,100.1834,-0.232,0.817,70.77,0,109.5,13.66,0.52,331.6
"2009-03-08 01:34:30",691730,0.319,359.5,8.5,0.084,0.47,100.1798,-0.241,0.821,70.79,0,109.5,13.66,0.51,321.5
"2009-03-08 01:35:00",691731,0.922,350.2,11.44,1.084,1.517,100.1747,-0.254,0.948,70.92,0,109.5,13.63,0.50,312.2
"2009-03-08 01:35:30",691732,1.162,350.8,9.87,1.13,1.392,100.1687,-0.269,0.891,70.94,0,109.5,13.63,0.48,312.8
"2009-03-08 01:36:00",691733,1.209,335.6,6.298,0.95,1.524,100.1611,-0.289,0.927,71.11,0,109.5,13.63,0.46,297.6
"2009-03-08 01:36:30",691734,3.115,349.5,5.311,0.977,4.412,100.1585,-0.295,1.026,71.23,0,109.5,13.63,0.46,311.5
"2009-03-08 01:37:00",691735,3.398,352.3,4.397,0.751,5.075,100.1594,-0.293,1.058,71.25,0,109.5,13.63,0.46,314.3
"2009-03-08 01:37:30",691736,2.756,348.7,7.383,1.224,3.516,100.1594,-0.293,0.949,71.13,0,109.5,13.63,0.46,310.7
"2009-03-08 01:38:00",691737,1.477,345.7,5.031,0.75,0.762,100.1608,-0.29,0.784,70.97,0,109.5,13.63,0.46,307.7
"2009-03-08 01:38:30",691738,2.19,350.6,7.023,1.145,2.171,100.1614,-0.288,0.904,71.15,0,109.5,13.63,0.46,312.6
"2009-03-08 01:39:00",691739,1.301,348,2.803,0.493,0.249,100.1571,-0.299,0.827,71.18,0,109.5,13.64,0.45,310.0
"2009-03-08 01:39:30",691740,1.096,344.3,1.945,0.064,0.181,100.1481,-0.322,0.756,71.18,0,109.5,13.67,0.43,306.3
"2009-03-08 01:40:00",691741,2.481,352.3,7.266,1.194,3.119,100.1424,-0.336,0.924,71.44,0,109.5,13.64,0.41,314.3
"2009-03-08 01:40:30",691742,2.785,355.6,5.883,1.009,4.915,100.1416,-0.339,1.014,71.61,0,109.5,13.64,0.41,317.6
"2009-03-08 01:41:00",691743,2.267,348.7,9.28,1.228,2.831,100.1342,-0.357,0.824,71.47,0,109.5,13.64,0.39,310.7
"2009-03-08 01:41:30",691744,0.792,344.3,6.776,0.051,0.557,100.1331,-0.36,0.734,71.44,0,109.5,13.64,0.39,306.3
"2009-03-08 01:42:00",691745,1.519,0.197,8.26,1.125,2.241,100.1334,-0.36,0.858,71.65,0,109.5,13.64,0.39,322.2
"2009-03-08 01:42:30",691746,0.489,353.8,6.669,0.077,0.561,100.1291,-0.37,0.787,71.64,0,109.5,13.67,0.38,315.8
"2009-03-08 01:43:00",691747,0.471,354.1,7.162,0.095,0.189,100.1181,-0.399,0.687,71.59,0,109.5,13.67,0.35,316.1
"2009-03-08 01:43:30",691748,1.295,7.686,12.76,1.215,2.209,100.1099,-0.419,0.782,71.64,0,109.5,13.64,0.33,329.7
"2009-03-08 01:44:00",691749,1.543,8,13.28,1.292,2.946,100.1019,-0.44,0.848,71.72,0,109.5,13.64,0.31,330.0
"2009-03-08 01:44:30",691750,1.729,3.232,6.97,1.228,3.091,100.1019,-0.44,0.882,71.76,0,109.5,13.64,0.31,325.2
"2009-03-08 01:45:00",691751,1.541,2.828,3.876,1.172,2.827,100.1019,-0.44,0.905,71.83,0,109.5,13.64,0.31,324.8
"2009-03-08 01:45:30",691752,1.895,334.5,13.13,1.206,2.702,100.0974,-0.451,0.684,71.67,0,109.5,13.64,0.30,296.5
"2009-03-08 01:46:00",691753,1.468,322.5,5.832,1.142,1.875,100.0841,-0.485,0.769,71.75,0,109.5,13.64,0.27,284.5
"2009-03-08 01:46:30",691754,0.453,319.2,1.724,0.026,-0.009,100.0804,-0.495,0.615,71.52,0,109.5,13.67,0.26,281.2
"2009-03-08 01:47:00",691755,0.384,317.4,2.659,0.012,-0.075,100.0705,-0.52,0.603,71.44,0,109.5,13.67,0.23,279.4
"2009-03-08 01:47:30",691756,0.463,328.6,5.446,0.458,0.853,100.068,-0.526,0.705,71.46,0,109.5,13.64,0.22,290.6
"2009-03-08 01:48:00",691757,1.241,342,3.373,1.182,2.113,100.068,-0.526,0.642,71.34,0,109.5,13.64,0.22,304.0
"2009-03-08 01:48:30",691758,1.063,337.7,6.546,1.113,1.983,100.0651,-0.534,0.684,71.37,0,109.5,13.64,0.22,299.7